Weather History for Logansport, IN

Change the Weather History Date:

Saturday, January 11, 2014

  Actual Average Record
Temperature  
Mean Temperature 36 °F -  
Max Temperature 39 °F 30 °F 55 °F (2013)
Min Temperature 32 °F 20 °F 32 °F (2014)
Degree Days  
Heating Degree Days 30    
Moisture  
Dew Point 33 °F    
Average Humidity 97    
Maximum Humidity 100    
Minimum Humidity 87    
Precipitation  
Precipitation 0.02 in - - ()
Sea Level Pressure  
Sea Level Pressure 29.58 in    
Wind  
Wind Speed 12 mph (WSW)    
Max Wind Speed 23 mph    
Max Gust Speed 32 mph    
Visibility 5 miles    
Events Fog    
Averages and records for this station are not official NWS values.
T = Trace of Precipitation, MM = Missing Value Source: NWS Daily Summary

Daily Weather History Graph

Daily Weather History Graph

Search for Another Location

Airport:

Trip Planner

Search our weather history database for the weather conditions in past years. The results will help you decide how hot, cold, wet, or windy it might be!

Date:

Astronomy

Jan. 11, 2014 Rise Set
Actual Time 8:08 AM EST 5:38 PM EST
Civil Twilight 7:38 AM EST 6:08 PM EST
Nautical Twilight 7:04 AM EST 6:42 PM EST
Astronomical Twilight 6:31 AM EST 7:15 PM EST
Moon 2:22 PM EST (1/11) 4:12 AM EST (1/11)
Length of Visible Light 10h 30m
Length of Day
9h 29m
Waxing Gibbous, 83% of the Moon is Illuminated
Jan 11
Waxing Gibbous
Jan 15
Full
Jan 24
Last Quarter
Jan 30
New
Feb 6
First Quarter

Hourly Weather History & Observations

Time (EST) Temp. Windchill Dew Point Humidity Pressure Visibility Wind Dir Wind Speed Gust Speed Precip Events Conditions
12:15 AM 37.4 °F 30.3 °F 37.4 °F 100% 29.59 in 5.0 mi South 10.4 mph - N/A   Overcast
12:35 AM 37.4 °F 30.3 °F 37.4 °F 100% 29.59 in 5.0 mi South 10.4 mph - N/A   Overcast
12:55 AM 37.4 °F 30.8 °F 35.6 °F 93% 29.59 in 3.0 mi SSW 9.2 mph - N/A   Overcast
1:15 AM 39.2 °F 32.5 °F 37.4 °F 93% 29.59 in 4.0 mi SSW 10.4 mph - N/A   Light Drizzle
1:35 AM 35.6 °F 29.2 °F 35.6 °F 100% 29.58 in 0.5 mi South 8.1 mph - N/A Fog Fog
1:55 AM 37.4 °F 32.1 °F 37.4 °F 100% 29.58 in 0.5 mi SSW 6.9 mph - N/A Fog Fog
2:15 AM 35.6 °F 29.2 °F 35.6 °F 100% 29.56 in 0.2 mi South 8.1 mph - N/A Fog Fog
2:35 AM 35.6 °F 28.6 °F 35.6 °F 100% 29.56 in 0.2 mi South 9.2 mph - N/A Fog Fog
2:55 AM 37.4 °F 31.4 °F 35.6 °F 93% 29.55 in 0.2 mi South 8.1 mph - N/A Fog Fog
3:15 AM 35.6 °F 29.2 °F 35.6 °F 100% 29.55 in 0.2 mi South 8.1 mph - N/A Fog Fog
3:35 AM 37.4 °F 31.4 °F 37.4 °F 100% 29.53 in 0.2 mi South 8.1 mph - N/A Fog Fog
3:55 AM 35.6 °F 29.9 °F 35.6 °F 100% 29.51 in 0.2 mi South 6.9 mph - N/A Fog Fog
4:15 AM 37.4 °F 30.8 °F 37.4 °F 100% 29.49 in 0.2 mi SSE 9.2 mph - N/A Fog Fog
4:35 AM 35.6 °F 28.0 °F 35.6 °F 100% 29.47 in 0.2 mi SSE 10.4 mph - N/A Fog Fog
4:55 AM 37.4 °F 30.8 °F 37.4 °F 100% 29.46 in 0.2 mi South 9.2 mph - N/A Fog Fog
5:15 AM 37.4 °F 31.4 °F 37.4 °F 100% 29.46 in 0.2 mi South 8.1 mph - N/A Fog Fog
5:35 AM 35.6 °F 29.9 °F 35.6 °F 100% 29.47 in 0.2 mi SSW 6.9 mph - N/A Fog Fog
5:55 AM 35.6 °F 28.6 °F 35.6 °F 100% 29.46 in 0.2 mi SSW 9.2 mph - N/A Fog Fog
6:15 AM 35.6 °F 29.2 °F 35.6 °F 100% 29.46 in 0.2 mi SSW 8.1 mph - 0.01 in Fog Fog
6:35 AM 35.6 °F 29.2 °F 35.6 °F 100% 29.45 in 0.2 mi SSW 8.1 mph - 0.02 in Fog Fog
6:55 AM 37.4 °F 30.8 °F 35.6 °F 93% 29.45 in 0.2 mi SW 9.2 mph - 0.02 in Fog Fog
7:15 AM 37.4 °F 29.3 °F 37.4 °F 100% 29.45 in 0.2 mi SW 12.7 mph - N/A Fog Fog
7:35 AM 37.4 °F 30.3 °F 37.4 °F 100% 29.45 in 0.5 mi SW 10.4 mph - N/A Fog Fog
7:55 AM 37.4 °F 29.3 °F 37.4 °F 100% 29.45 in 0.8 mi WSW 12.7 mph - N/A   Overcast
8:15 AM 37.4 °F 29.8 °F 37.4 °F 100% 29.44 in 0.2 mi WSW 11.5 mph - N/A Fog Fog
8:35 AM 37.4 °F 30.8 °F 35.6 °F 93% 29.45 in 0.2 mi WSW 9.2 mph - N/A Fog Fog
8:55 AM 37.4 °F 28.5 °F 35.6 °F 93% 29.47 in 0.2 mi WSW 15.0 mph - N/A Fog Fog
9:15 AM 35.6 °F 25.5 °F 35.6 °F 100% 29.48 in 0.2 mi West 17.3 mph 23.0 mph N/A Fog Fog
9:35 AM 35.6 °F 25.5 °F 35.6 °F 100% 29.49 in 0.8 mi West 17.3 mph 23.0 mph N/A   Overcast
9:55 AM 35.6 °F 24.8 °F 33.8 °F 93% 29.50 in 5.0 mi West 19.6 mph 27.6 mph N/A   Overcast
10:15 AM 33.8 °F 23.5 °F 33.8 °F 100% 29.50 in 7.0 mi West 16.1 mph 23.0 mph N/A   Overcast
10:35 AM 33.8 °F 23.2 °F 33.8 °F 100% 29.51 in 10.0 mi West 17.3 mph 20.7 mph N/A   Overcast
10:55 AM 33.8 °F 23.2 °F 33.8 °F 100% 29.52 in 10.0 mi West 17.3 mph 26.5 mph N/A   Overcast
11:15 AM 33.8 °F 22.2 °F 33.8 °F 100% 29.53 in 7.0 mi West 20.7 mph 25.3 mph N/A   Overcast
11:35 AM 33.8 °F 22.2 °F 32.0 °F 93% 29.53 in 5.0 mi West 20.7 mph - N/A   Overcast
11:55 AM 32.0 °F 20.8 °F 32.0 °F 100% 29.53 in 4.0 mi West 17.3 mph 31.1 mph N/A   Overcast
12:15 PM 32.0 °F 20.1 °F 32.0 °F 100% 29.53 in 3.0 mi West 19.6 mph 26.5 mph N/A   Overcast
12:35 PM 32.0 °F 20.8 °F 32.0 °F 100% 29.53 in 4.0 mi West 17.3 mph 21.9 mph N/A   Overcast
12:55 PM 32.0 °F 21.6 °F 32.0 °F 100% 29.53 in 7.0 mi West 15.0 mph 23.0 mph N/A   Overcast
1:15 PM 32.0 °F 20.8 °F 32.0 °F 100% 29.53 in 5.0 mi West 17.3 mph 23.0 mph N/A   Overcast
1:35 PM 32.0 °F 21.2 °F 32.0 °F 100% 29.54 in 7.0 mi West 16.1 mph 24.2 mph N/A   Overcast
1:55 PM 32.0 °F 20.1 °F 32.0 °F 100% 29.54 in 5.0 mi West 19.6 mph 26.5 mph N/A   Overcast
2:15 PM 32.0 °F 20.1 °F 32.0 °F 100% 29.55 in 3.0 mi West 19.6 mph 27.6 mph N/A   Overcast
2:35 PM 32.0 °F 20.5 °F 32.0 °F 100% 29.55 in 4.0 mi West 18.4 mph 25.3 mph N/A   Overcast
2:55 PM 32.0 °F 19.5 °F 32.0 °F 100% 29.56 in 7.0 mi West 21.9 mph 32.2 mph N/A   Overcast
3:15 PM 32.0 °F 21.2 °F 32.0 °F 100% 29.57 in 7.0 mi West 16.1 mph 25.3 mph N/A   Overcast
3:35 PM 32.0 °F 19.2 °F 32.0 °F 100% 29.58 in 5.0 mi West 23.0 mph - N/A   Overcast
3:55 PM 32.0 °F 20.5 °F 32.0 °F 100% 29.59 in 5.0 mi West 18.4 mph 24.2 mph N/A   Overcast
4:15 PM 32.0 °F 21.2 °F 32.0 °F 100% 29.60 in 7.0 mi WSW 16.1 mph 21.9 mph N/A   Overcast
4:35 PM 32.0 °F 21.2 °F 30.2 °F 93% 29.61 in 7.0 mi WSW 16.1 mph 24.2 mph N/A   Overcast
4:55 PM 32.0 °F 21.6 °F 30.2 °F 93% 29.62 in 7.0 mi West 15.0 mph 24.2 mph N/A   Overcast
5:15 PM 32.0 °F 22.1 °F 30.2 °F 93% 29.62 in 7.0 mi WSW 13.8 mph - N/A   Overcast
5:35 PM 32.0 °F 21.2 °F 30.2 °F 93% 29.63 in 7.0 mi WSW 16.1 mph 24.2 mph N/A   Overcast
5:55 PM 32.0 °F 21.6 °F 30.2 °F 93% 29.64 in 7.0 mi WSW 15.0 mph 19.6 mph N/A   Overcast
6:15 PM 32.0 °F 22.1 °F 30.2 °F 93% 29.65 in 10.0 mi WSW 13.8 mph 20.7 mph N/A   Overcast
6:35 PM 32.0 °F 21.6 °F 32.0 °F 100% 29.66 in 10.0 mi WSW 15.0 mph - N/A   Overcast
6:55 PM 32.0 °F 22.1 °F 32.0 °F 100% 29.67 in 7.0 mi WSW 13.8 mph - N/A   Overcast
7:15 PM 32.0 °F 22.1 °F 32.0 °F 100% 29.68 in 7.0 mi WSW 13.8 mph - N/A   Overcast
7:35 PM 33.8 °F 25.3 °F 32.0 °F 93% 29.68 in 7.0 mi WSW 11.5 mph - N/A   Overcast
7:55 PM 33.8 °F 24.8 °F 32.0 °F 93% 29.69 in 7.0 mi WSW 12.7 mph - N/A   Overcast
8:15 PM 32.0 °F 23.6 °F 32.0 °F 100% 29.69 in 7.0 mi WSW 10.4 mph - N/A   Overcast
8:35 PM 33.8 °F 25.3 °F 32.0 °F 93% 29.71 in 7.0 mi WSW 11.5 mph - N/A   Overcast
8:55 PM 33.8 °F 25.3 °F 32.0 °F 93% 29.71 in 7.0 mi WSW 11.5 mph - N/A   Overcast
9:15 PM 33.8 °F 25.3 °F 32.0 °F 93% 29.72 in 7.0 mi WSW 11.5 mph - N/A   Overcast
9:35 PM 33.8 °F 23.2 °F 32.0 °F 93% 29.73 in 10.0 mi West 17.3 mph 23.0 mph N/A   Overcast
9:55 PM 33.8 °F 22.8 °F 30.2 °F 87% 29.73 in 10.0 mi West 18.4 mph 26.5 mph N/A   Overcast
10:15 PM 32.0 °F 21.2 °F 30.2 °F 93% 29.75 in 10.0 mi West 16.1 mph 23.0 mph N/A   Overcast
10:35 PM 32.0 °F 21.6 °F 28.4 °F 87% 29.77 in 10.0 mi WNW 15.0 mph 23.0 mph N/A   Overcast
10:55 PM 32.0 °F 20.5 °F 28.4 °F 87% 29.78 in 10.0 mi West 18.4 mph 24.2 mph N/A   Overcast
11:15 PM 32.0 °F 21.6 °F 28.4 °F 87% 29.78 in 10.0 mi West 15.0 mph 19.6 mph N/A   Overcast
11:35 PM 32.0 °F 22.1 °F 28.4 °F 87% 29.78 in 10.0 mi West 13.8 mph 18.4 mph N/A   Overcast
11:55 PM 32.0 °F 23.6 °F 28.4 °F 87% 29.79 in 10.0 mi West 10.4 mph - N/A   Overcast